| time (UTC) | temp F | wind direction | speed knots | gust knots | rain 1hr in | rain 24hr in | rain mn in | humidity % | barometer mb |
| 20260504021517 | 66 | 180 | 4.3 | 10.4 | 0.00 | 0.00 | 0.00 | 58 | 1012.2 |
| 20260504020017 | 67 | 19 | 4.3 | 9.6 | 0.00 | 0.00 | 0.00 | 56 | 1012.2 |
| 20260504014524 | 68 | 289 | 4.3 | 10.4 | 0.00 | 0.00 | 0.00 | 53 | 1012.1 |
| 20260504013016 | 69 | 173 | 2.6 | 10.4 | 0.00 | 0.00 | 0.00 | 53 | 1012.0 |
| 20260504011514 | 69 | 281 | 1.7 | 8.7 | 0.00 | 0.00 | 0.00 | 52 | 1012.0 |
| 20260504010117 | 69 | 17 | 2.6 | 9.6 | 0.00 | 0.00 | 0.00 | 52 | 1011.8 |
| 20260504004514 | 70 | 178 | 3.5 | 10.4 | 0.00 | 0.00 | 0.00 | 51 | 1011.9 |
| 20260504003013 | 71 | 178 | 3.5 | 10.4 | 0.00 | 0.00 | 0.00 | 50 | 1011.8 |
| 20260504001511 | 70 | 115 | 2.6 | 7.0 | 0.00 | 0.00 | 0.00 | 50 | 1012.0 |
| 20260504000022 | 69 | 236 | 5.2 | 9.6 | 0.00 | 0.00 | 0.00 | 51 | 1012.1 |
| 20260503234511 | 69 | 155 | 4.3 | 10.4 | 0.00 | 0.00 | 0.00 | 52 | 1012.2 |
| 20260503233008 | 69 | 237 | 1.7 | 9.6 | 0.00 | 0.00 | 0.00 | 53 | 1012.3 |
| 20260503231506 | 69 | 244 | 3.5 | 8.7 | 0.00 | 0.00 | 0.00 | 53 | 1012.4 |
| 20260503230007 | 69 | 311 | 2.6 | 9.6 | 0.00 | 0.00 | 0.00 | 53 | 1012.3 |
| 20260503224506 | 69 | 203 | 4.3 | 8.7 | 0.00 | 0.00 | 0.00 | 52 | 1012.1 |
| 20260503223006 | 69 | 184 | 3.5 | 10.4 | 0.00 | 0.00 | 0.00 | 52 | 1012.1 |
| 20260503221504 | 69 | 188 | 5.2 | 10.4 | 0.00 | 0.00 | 0.00 | 53 | 1012.1 |
| 20260503220002 | 68 | 193 | 2.6 | 12.2 | 0.00 | 0.00 | 0.00 | 55 | 1012.2 |
| 20260503214506 | 68 | 163 | 3.5 | 12.2 | 0.00 | 0.00 | 0.00 | 55 | 1012.3 |
| 20260503213002 | 68 | 196 | 4.3 | 9.6 | 0.00 | 0.00 | 0.00 | 54 | 1012.4 |
| 20260503211502 | 68 | 167 | 4.3 | 10.4 | 0.00 | 0.00 | 0.00 | 54 | 1012.6 |
| 20260503204609 | 69 | 185 | 4.3 | 13.9 | 0.00 | 0.00 | 0.00 | 52 | 1012.6 |
| 20260503203106 | 68 | 170 | 2.6 | 13.0 | 0.00 | 0.00 | 0.00 | 54 | 1012.8 |
| 20260503201554 | 67 | 166 | 4.3 | 10.4 | 0.00 | 0.00 | 0.00 | 54 | 1012.7 |
| 20260503200053 | 66 | 115 | 3.5 | 11.3 | 0.00 | 0.00 | 0.00 | 56 | 1012.8 |
| 20260503194607 | 66 | 172 | 5.2 | 12.2 | 0.00 | 0.00 | 0.00 | 55 | 1012.8 |
| 20260503193048 | 66 | 236 | 4.3 | 13.9 | 0.00 | 0.00 | 0.00 | 55 | 1012.8 |
| 20260503191547 | 65 | 217 | 5.2 | 13.9 | 0.00 | 0.00 | 0.00 | 57 | 1012.9 |
| 20260503190057 | 65 | 218 | 4.3 | 13.9 | 0.00 | 0.00 | 0.00 | 56 | 1013.1 |
| 20260503184544 | 65 | 220 | 3.5 | 10.4 | 0.00 | 0.00 | 0.00 | 58 | 1012.9 |
| 20260503183050 | 64 | 166 | 3.5 | 14.8 | 0.00 | 0.00 | 0.00 | 59 | 1012.9 |
| 20260503181538 | 64 | 261 | 3.5 | 9.6 | 0.00 | 0.00 | 0.00 | 62 | 1012.9 |
| 20260503180035 | 63 | 178 | 5.2 | 8.7 | 0.00 | 0.00 | 0.00 | 64 | 1013.1 |
| 20260503174531 | 62 | 118 | 3.5 | 10.4 | 0.00 | 0.00 | 0.00 | 65 | 1013.2 |
| 20260503173044 | 61 | 116 | 4.3 | 12.2 | 0.00 | 0.00 | 0.00 | 67 | 1013.1 |
| 20260503171527 | 61 | 234 | 3.5 | 11.3 | 0.00 | 0.00 | 0.00 | 67 | 1012.9 |
| 20260503081537 | 55 | 144 | 1.7 | 7.0 | 0.00 | 0.00 | 0.00 | 77 | 1011.1 |
| 20260503071532 | 56 | 165 | 3.5 | 7.0 | 0.00 | 0.00 | 0.00 | 76 | 1011.4 |
| 20260503054507 | 57 | 169 | 0.9 | 6.1 | 0.00 | 0.00 | 0.00 | 75 | 1011.7 |
| 20260503053013 | 57 | 207 | 0.9 | 6.1 | 0.00 | 0.00 | 0.00 | 74 | 1011.7 |
| 20260503051505 | 58 | 194 | 2.6 | 7.0 | 0.00 | 0.00 | 0.00 | 73 | 1011.7 |
| 20260503050006 | 58 | 145 | 0.0 | 5.2 | 0.00 | 0.00 | 0.00 | 72 | 1011.6 |
| 20260503044505 | 59 | 198 | 2.6 | 7.8 | 0.00 | 0.00 | 0.00 | 70 | 1011.5 |
| 20260503043009 | 59 | 167 | 2.6 | 7.8 | 0.00 | 0.00 | 0.00 | 68 | 1011.3 |
| 20260503041505 | 60 | 184 | 3.5 | 7.0 | 0.00 | 0.00 | 0.00 | 68 | 1011.2 |
| 20260503040007 | 60 | 160 | 1.7 | 8.7 | 0.00 | 0.00 | 0.00 | 68 | 1011.0 |
| 20260503034503 | 61 | 171 | 0.9 | 7.0 | 0.00 | 0.00 | 0.00 | 68 | 1010.9 |
| 20260503033003 | 62 | 195 | 2.6 | 9.6 | 0.00 | 0.00 | 0.00 | 68 | 1010.8 |
| 20260503031502 | 62 | 145 | 3.5 | 8.7 | 0.00 | 0.00 | 0.00 | 67 | 1010.6 |
| 20260503030001 | 63 | 181 | 0.9 | 5.2 | 0.00 | 0.00 | 0.00 | 67 | 1010.5 |
| 20260503024503 | 64 | 180 | 4.3 | 8.7 | 0.00 | 0.00 | 0.00 | 65 | 1010.6 |
| 20260503023100 | 65 | 190 | 1.7 | 7.0 | 0.00 | 0.00 | 0.00 | 63 | 1010.5 |
| 20260503021603 | 65 | 157 | 3.5 | 7.8 | 0.00 | 0.00 | 0.00 | 61 | 1010.5 |